Theta_e
323 324 328 326 327 319 323 326 325 328 326 325 325 326 333 334 341 343 341 341 340 335 328 323 330 335 335 336 335 330 327 330 334 334 334 333 332 330 329 326 328 328 328 328 327 327 327 327 324
322 323 328 323 328 323 320 322 325 326 325 324 326 326 329 336 334 341 341 341 339 335 329 323 329 334 336 336 335 334 332 332 334 334 332 332 332 331 328 327 326 328 332 331 328 326 326 323 321
321 324 324 327 327 328 320 323 324 325 324 326 327 325 330 333 335 339 341 340 338 336 330 323 324 333 336 336 335 330 328 327 326 333 332 330 331 330 328 326 327 326 328 332 329 326 323 322 321
320 324 325 326 329 326 319 322 323 325 324 323 324 331 329 333 338 341 340 339 336 336 331 324 320 328 333 334 332 330 331 329 328 327 330 328 329 330 327 327 326 325 326 328 329 324 321 318 318
321 323 331 329 329 326 320 321 323 324 323 322 321 330 333 337 339 341 339 338 337 335 336 326 321 324 330 331 331 333 331 330 329 328 326 326 327 326 326 326 325 326 326 326 326 323 319 318 317
320 323 331 332 328 325 324 320 321 321 320 321 327 331 333 338 340 340 339 337 336 337 336 328 323 320 325 330 330 333 332 332 330 329 328 327 325 326 325 324 325 325 325 325 325 324 320 319 319
326 327 331 331 327 326 325 324 322 323 321 325 320 331 331 334 340 340 339 338 337 338 336 329 326 323 321 324 328 329 330 332 331 330 329 327 326 326 326 326 325 324 325 324 324 325 324 321 319
323 326 329 330 327 328 323 325 325 325 329 326 325 328 332 331 338 340 339 338 338 337 337 333 329 326 324 322 325 328 328 332 333 332 329 327 326 325 325 326 326 325 324 324 323 324 324 324 321
323 326 328 330 329 326 322 326 326 325 327 328 329 328 326 336 337 338 338 339 338 338 336 336 333 330 326 324 323 325 328 330 330 331 331 327 326 326 326 325 325 324 324 323 324 324 324 324 322
321 322 326 328 328 324 322 324 325 326 328 330 331 333 335 335 336 336 336 336 338 338 337 336 334 334 332 328 325 323 323 326 328 328 327 329 328 327 327 327 327 326 325 325 324 324 324 323 322
319 320 320 326 328 325 324 323 324 325 328 328 332 333 334 335 335 335 336 336 337 338 337 336 334 334 334 333 332 329 324 323 323 325 326 325 327 326 326 328 327 327 327 326 324 323 323 323 323
321 319 321 325 324 325 326 324 325 324 327 325 328 332 334 334 334 334 335 336 336 336 337 335 334 334 335 334 333 332 331 327 326 323 324 325 327 327 327 327 327 326 325 326 324 325 324 325 326
321 319 320 323 323 323 324 325 325 325 323 326 329 331 333 333 334 334 333 335 335 335 333 333 334 335 335 335 334 333 332 332 330 329 328 328 327 328 328 327 327 327 326 327 326 326 326 326 326
320 320 320 322 321 324 325 324 324 325 322 324 330 330 330 331 332 333 333 333 333 334 333 333 332 336 335 334 334 333 333 333 332 331 330 330 330 328 327 327 327 327 326 326 327 326 326 326 325
321 320 320 320 320 322 321 319 324 322 321 323 325 324 327 328 331 331 332 332 333 333 333 333 334 333 333 334 334 334 334 333 333 332 332 331 331 331 330 329 329 328 327 327 326 326 326 325 325
320 320 321 319 319 321 315 313 315 315 320 320 321 321 322 324 327 331 332 332 332 332 333 333 333 333 333 332 331 333 333 334 333 333 332 332 331 331 331 330 330 329 328 328 327 327 326 326 325
320 319 319 319 318 321 317 316 315 317 316 316 315 314 315 319 324 328 330 332 332 333 333 333 333 334 334 334 334 333 331 331 333 333 333 332 332 331 331 331 331 330 329 329 329 328 328 327 326
319 320 314 316 319 320 321 320 318 317 318 316 315 315 314 315 313 321 325 327 329 331 332 332 333 334 334 334 334 334 334 334 333 331 332 333 333 332 332 331 331 331 330 330 329 328 328 327 327
313 314 314 318 318 318 318 317 315 314 314 315 315 314 315 314 315 317 318 318 318 320 322 323 328 331 333 334 334 334 334 334 334 333 333 331 333 333 332 332 332 331 331 330 329 328 328 328 328
316 315 313 317 316 315 314 313 311 310 310 310 310 310 309 310 309 311 313 314 314 317 318 319 319 319 320 330 331 330 331 333 333 333 333 333 332 332 332 332 331 331 330 330 329 329 329 328 328
316 315 313 313 316 315 315 312 312 311 310 309 309 309 309 309 308 308 310 313 314 315 315 316 317 318 319 320 325 329 330 330 330 331 332 332 332 330 330 331 330 330 330 329 328 328 328 327 327
318 315 315 316 313 312 311 309 309 307 308 309 309 308 307 308 309 309 308 311 311 312 313 314 315 316 317 319 320 322 326 327 328 329 330 330 330 330 331 329 331 329 328 327 326 326 326 326 325
315 313 314 314 313 312 310 309 307 306 307 305 308 307 307 308 310 309 308 309 310 311 311 312 312 314 314 316 317 322 325 326 326 326 327 328 330 331 330 329 329 328 327 325 324 324 324 324 324
312 312 314 314 311 307 309 305 303 306 307 311 311 309 309 308 308 308 309 310 312 312 312 313 314 315 314 314 314 315 319 322 325 325 327 327 326 326 328 328 327 326 325 325 324 324 324 323 323
313 313 314 313 308 303 307 307 304 307 309 309 310 309 309 309 307 307 308 310 310 310 309 309 311 312 316 318 316 316 319 322 323 323 324 324 324 323 323 324 324 323 322 321 320 320 319 319 319
314 312 312 303 314 312 310 310 308 308 308 308 308 309 309 308 308 308 308 308 308 308 307 306 307 308 310 313 316 316 317 319 319 318 316 317 317 316 315 315 314 313 312 312 313 313 313 314 315
314 315 312 311 303 307 307 309 308 309 310 309 308 308 309 308 308 307 307 307 306 305 305 305 305 305 306 307 308 310 311 312 313 312 311 310 309 308 306 306 306 306 306 307 307 308 309 310 311
313 312 315 311 310 311 307 306 305 309 309 308 308 308 308 308 309 308 306 306 305 304 304 304 304 303 303 304 304 304 305 306 306 306 305 305 304 303 303 303 303 303 303 304 304 305 305 305 306
314 315 314 312 311 314 311 306 305 306 308 308 308 309 307 307 306 308 307 307 306 305 303 303 303 303 302 302 302 302 302 302 303 302 302 302 302 302 302 301 301 301 301 301 301 302 302 302 301
312 313 312 312 313 310 311 309 308 306 307 307 308 308 307 306 305 304 308 306 305 304 303 303 302 302 302 302 302 301 301 301 301 301 301 301 300 300 300 300 300 300 300 299 299 299 298 298 299
Wind_Speed
24 23 11 2 4 5 1 1 4 4 4 2 2 8 9 4 3 4 14 18 23 24 20 18 19 15 15 15 15 14 13 12 12 11 12 13 13 14 14 14 13 12 11 13 12 12 12 12 12
25 25 1 1 3 3 4 1 7 5 4 6 6 5 5 3 3 10 13 24 23 23 20 18 18 16 15 17 16 14 11 10 11 11 12 12 12 13 13 13 11 12 12 12 11 10 10 10 11
24 14 3 4 3 3 4 4 6 4 5 2 3 5 4 2 5 12 22 24 22 21 18 18 18 17 17 18 17 12 10 9 9 12 12 11 12 12 12 11 12 10 8 11 10 10 9 9 9
13 7 4 4 3 5 6 6 8 5 4 4 5 7 4 1 20 16 26 25 20 19 17 16 17 18 17 16 13 13 11 8 8 9 12 11 10 10 12 11 9 7 8 7 7 7 8 7 7
6 2 1 3 2 3 2 9 9 6 5 2 4 2 4 5 23 31 28 25 23 20 17 15 16 17 17 15 13 13 12 8 6 7 9 10 10 8 10 11 8 7 5 6 5 4 4 4 5
4 2 3 1 2 4 2 7 8 5 6 6 6 6 2 19 28 29 26 24 20 20 17 16 15 15 16 15 14 13 12 12 10 8 8 8 8 8 7 7 9 7 5 4 2 1 0 0 1
2 2 3 2 5 3 4 2 7 7 6 2 10 4 4 10 22 26 25 22 21 18 16 17 16 15 15 16 15 13 11 11 11 10 9 8 8 8 7 7 6 6 8 7 5 5 4 4 3
2 3 5 2 7 5 6 2 4 5 2 1 4 5 5 12 23 24 22 24 21 17 13 14 15 15 15 15 15 15 13 11 12 11 9 7 8 9 8 10 9 8 7 7 8 7 8 7 7
3 3 3 4 6 6 6 4 2 2 5 4 4 3 11 28 25 23 22 24 24 21 18 14 13 14 14 14 15 15 15 14 13 12 12 12 11 10 10 10 10 10 9 9 9 9 10 11 11
3 3 2 3 5 6 9 7 7 4 3 4 5 9 23 27 25 23 22 23 26 24 22 20 16 14 13 15 15 16 16 18 18 16 14 15 14 11 10 10 9 11 11 12 12 12 13 14 14
3 4 2 6 5 7 8 6 5 7 3 7 10 11 11 19 19 18 19 24 29 25 22 20 19 17 16 15 14 15 17 18 18 19 18 16 15 13 13 14 12 14 14 15 15 15 15 14 12
2 4 3 5 6 5 3 2 5 6 3 3 13 18 14 10 15 19 22 21 23 27 26 22 20 21 21 19 19 16 16 18 17 18 17 18 17 15 16 18 17 17 17 14 13 14 14 14 13
1 3 2 3 6 3 4 4 2 2 5 7 14 13 11 11 15 20 24 26 22 24 24 29 26 24 25 24 21 20 19 17 17 16 17 18 19 20 20 18 18 17 15 17 14 15 15 16 17
1 3 3 2 3 3 3 4 5 2 5 8 12 10 9 10 18 19 23 25 26 25 25 23 25 28 24 26 26 24 21 19 19 18 18 19 20 21 22 21 20 20 19 18 18 17 18 19 19
2 3 4 1 1 1 3 5 6 6 2 7 8 9 9 12 22 23 27 27 28 27 23 25 24 23 30 29 25 25 23 24 21 22 20 21 22 22 21 21 21 21 20 20 20 20 20 22 21
2 3 1 5 8 3 5 7 4 10 6 7 7 6 6 8 16 25 25 26 26 26 26 25 26 25 24 25 29 30 27 22 23 24 22 23 23 24 24 24 24 22 21 20 21 21 23 23 23
2 3 5 4 4 4 4 5 6 4 5 5 7 7 6 7 9 14 16 24 24 26 26 26 28 28 26 25 23 22 23 28 29 22 22 23 24 25 26 27 26 24 23 22 22 22 22 24 23
6 4 4 6 2 3 3 7 8 7 4 6 7 7 6 6 9 13 16 16 17 21 26 28 28 28 27 26 25 24 23 23 22 25 30 23 25 25 26 28 27 24 24 23 22 22 21 22 21
5 2 5 2 2 2 4 6 9 9 6 8 8 8 9 9 10 11 10 9 12 17 19 19 20 25 29 30 27 27 28 27 26 25 22 23 26 21 26 28 28 27 26 25 23 22 22 22 21
1 1 1 2 4 2 3 8 12 9 8 9 11 12 9 6 8 12 13 15 16 20 22 24 24 21 20 30 33 31 30 26 29 24 23 22 21 26 25 25 26 24 23 23 23 23 22 23 23
5 5 2 1 0 2 4 7 7 5 11 10 12 7 7 9 9 7 11 8 4 4 7 10 13 15 19 22 22 26 26 24 20 23 23 24 21 19 24 24 21 22 21 22 22 20 19 19 21
5 3 4 5 3 3 3 5 6 7 7 6 10 9 9 8 2 2 4 2 1 3 4 6 9 13 15 17 22 26 25 24 23 18 15 17 18 16 13 15 25 19 18 20 21 20 20 19 18
2 5 5 4 3 3 3 1 7 6 7 8 4 3 5 6 4 4 4 3 3 5 6 8 7 8 8 11 11 20 23 22 19 15 16 15 13 10 10 9 9 17 18 17 17 18 20 20 21
7 6 7 4 3 1 9 7 5 4 5 3 3 4 5 5 5 5 4 4 6 6 5 5 0 5 11 13 14 12 11 12 12 8 11 10 7 7 11 11 11 10 10 13 15 15 16 17 20
5 5 2 2 1 5 3 4 7 6 4 7 8 6 3 3 5 4 5 6 5 5 5 4 4 4 2 2 7 10 11 9 11 10 9 10 9 8 7 7 10 10 11 13 14 14 14 15 19
5 5 4 7 4 3 3 6 5 3 3 6 6 6 3 2 5 6 6 5 3 3 4 4 4 4 3 3 6 7 9 10 10 9 9 8 8 7 6 7 8 9 10 11 13 13 12 11 14
5 6 2 4 2 3 4 6 8 6 4 5 5 5 6 5 6 7 8 6 5 2 2 2 2 2 2 3 5 6 7 8 8 8 8 8 7 6 5 5 4 4 4 6 7 8 9 11 12
4 6 1 1 2 4 4 4 5 2 7 6 6 5 4 4 5 5 6 6 5 4 3 3 3 3 3 3 3 5 7 7 8 8 8 7 5 4 3 1 0 0 2 4 5 6 7 9 10
4 3 4 4 4 3 1 5 5 7 7 9 7 4 5 4 3 4 5 6 5 5 6 5 5 5 5 5 5 5 7 8 8 8 7 6 5 3 2 1 1 2 3 4 5 5 7 9 10
4 4 6 4 4 4 2 5 3 8 8 8 7 6 6 6 5 5 9 9 9 9 8 7 7 7 7 6 7 6 6 7 7 7 6 5 4 3 2 2 2 3 4 4 5 7 8 9 10
Wind_Direction
339 338 328 355 46 71 188 65 119 55 54 79 66 89 111 75 59 145 130 152 144 149 147 147 144 144 147 148 139 131 128 123 118 114 113 110 107 103 100 100 97 92 94 92 88 89 86 83 80
336 330 77 81 95 71 290 155 90 97 125 94 60 106 46 95 73 120 104 147 149 150 149 151 153 149 144 152 144 132 126 127 124 122 117 117 115 115 109 104 98 101 90 98 88 87 87 93 87
342 317 90 129 103 144 174 130 137 103 65 110 89 65 89 99 116 139 149 150 147 151 152 154 159 156 150 147 144 137 123 116 133 136 126 123 124 122 119 112 105 103 104 92 92 91 90 91 86
331 343 5 87 138 348 126 166 128 90 21 33 110 72 54 14 150 146 150 146 149 154 157 159 162 167 161 162 159 151 141 130 116 133 138 133 131 132 138 125 120 124 104 105 98 94 89 89 88
338 49 349 114 120 83 95 148 133 157 155 188 102 119 81 72 140 146 145 151 153 163 165 163 164 172 173 169 166 165 154 153 131 122 134 150 151 148 159 150 141 129 119 112 109 84 96 99 92
357 69 39 142 177 115 88 145 136 126 153 115 83 108 125 138 138 148 150 152 160 163 170 169 168 171 180 182 177 172 172 172 166 161 153 155 160 171 167 163 169 177 166 153 157 233 195 156 170
100 68 245 29 147 110 177 91 126 144 137 168 165 85 167 147 155 154 158 155 168 173 169 176 173 174 178 184 187 184 185 185 183 180 176 173 174 179 183 185 195 200 194 201 211 241 250 262 265
90 88 307 227 187 183 193 98 115 104 184 122 121 154 180 184 162 162 167 164 167 174 184 183 182 182 183 186 190 191 191 185 195 192 185 186 187 188 192 198 215 225 222 234 230 229 253 271 274
15 46 278 298 167 175 180 132 63 130 114 58 28 141 156 155 160 169 166 164 174 184 190 190 196 194 194 194 195 198 201 200 199 200 201 199 213 212 222 230 228 234 235 236 244 247 267 274 281
105 139 242 338 331 170 168 137 152 117 108 68 62 63 130 150 163 172 164 164 177 182 188 191 199 203 200 201 203 206 208 212 216 216 216 218 228 232 237 246 240 241 246 250 251 252 260 270 280
228 198 338 6 7 353 163 146 166 124 205 189 174 162 145 149 166 179 182 183 182 179 182 192 198 204 213 207 208 209 215 218 220 224 226 229 228 230 243 238 233 243 246 258 256 258 262 269 279
244 311 101 2 6 14 45 320 165 158 181 261 168 164 156 166 177 191 197 191 192 194 195 190 202 208 211 210 218 223 222 221 222 223 224 228 224 223 232 239 253 256 251 261 257 258 258 263 270
181 298 55 74 24 31 344 40 140 124 141 88 131 153 169 178 187 198 203 204 200 206 215 214 206 209 216 213 218 224 229 229 228 228 227 228 228 229 232 237 247 252 249 250 259 259 260 263 266
39 329 277 73 15 1 24 338 12 284 152 123 139 172 184 185 196 201 203 206 209 214 216 215 214 210 209 213 219 226 231 234 234 234 235 235 237 237 236 239 242 246 248 253 256 258 258 261 263
37 44 333 262 227 329 98 316 232 256 34 162 164 178 194 204 198 201 208 209 212 215 216 219 217 215 217 218 217 220 227 231 235 240 241 238 240 242 241 242 243 244 246 251 253 255 257 259 262
75 47 136 252 178 225 105 262 270 252 212 221 200 220 211 204 211 210 206 206 209 211 212 217 220 222 223 223 227 226 226 225 230 236 243 243 243 246 243 243 246 250 250 250 253 255 257 259 264
340 183 206 298 130 139 144 258 299 12 152 230 239 240 240 256 234 201 201 209 207 210 212 215 217 222 227 232 234 233 235 235 234 232 233 242 247 246 246 247 252 251 252 253 255 257 258 263 266
191 204 216 199 318 86 168 258 285 311 315 256 255 263 271 268 254 239 222 219 215 217 222 222 218 221 225 231 235 240 242 243 243 242 238 239 243 247 248 250 251 250 251 254 255 259 262 269 274
121 150 217 80 335 120 227 259 266 286 276 267 266 268 261 250 260 251 268 269 249 234 229 223 218 226 223 219 218 225 228 236 243 245 246 243 238 240 249 251 250 247 249 255 257 260 262 268 271
229 24 301 96 162 145 249 269 267 246 244 223 228 241 249 283 298 298 292 283 275 253 237 235 237 236 232 227 226 229 235 242 246 252 254 249 243 243 243 250 250 253 254 257 260 261 262 264 271
185 176 235 43 53 322 24 297 274 286 234 243 250 243 235 236 253 272 281 266 294 270 251 244 241 244 236 235 233 232 235 239 245 246 246 250 253 257 244 244 248 250 252 256 263 265 263 260 270
178 221 208 112 90 237 124 284 304 278 267 227 245 232 237 251 248 36 353 287 342 261 272 256 254 247 246 242 241 235 226 227 234 237 240 250 256 249 250 253 237 245 253 258 264 268 268 266 260
161 66 136 107 105 27 285 214 267 281 267 262 262 205 162 158 133 94 72 34 346 338 310 282 259 243 229 223 228 232 228 230 238 252 251 249 244 233 237 248 240 241 251 266 268 267 266 266 265
146 86 52 52 88 317 221 180 265 228 225 130 98 139 147 148 113 90 72 69 47 24 32 38 191 221 241 238 237 236 232 226 215 226 198 187 191 204 220 224 237 245 253 265 269 272 273 276 275
115 115 48 358 320 228 297 186 244 243 189 165 158 145 118 76 122 127 101 89 58 47 42 57 83 76 88 180 219 224 218 201 195 185 178 174 175 179 179 199 221 226 235 250 259 261 269 274 277
177 160 160 201 201 242 316 231 249 268 117 122 125 126 85 58 144 132 136 129 115 75 57 53 58 75 92 137 134 139 155 161 157 160 169 170 180 198 217 235 243 250 254 260 263 266 271 273 276
169 215 177 109 23 59 233 282 308 189 109 105 101 82 91 119 157 150 138 142 144 131 110 90 98 99 108 120 138 151 162 172 177 177 189 191 192 214 231 239 246 257 267 269 275 286 292 287 288
161 154 143 356 175 241 264 257 235 161 169 128 102 84 73 85 143 150 165 174 171 173 181 182 181 178 169 171 155 149 153 160 166 171 176 178 177 185 186 176 172 311 307 310 310 311 304 307 307
164 190 200 151 173 196 249 261 233 209 165 144 153 120 101 80 88 176 201 206 201 205 211 211 206 200 189 178 178 173 165 164 162 160 153 154 147 143 135 101 50 10 357 349 344 337 326 329 330
228 192 190 153 229 221 145 274 284 137 161 150 173 178 172 164 182 203 209 213 215 221 225 226 222 218 210 197 192 188 176 173 169 163 157 153 149 131 92 70 54 29 14 4 2 357 354 353 354